Regional Weather Roundup
Issued by NWS

Home | Current Version | Previous Version | Graphics & Text | Print | Product List | Glossary On
Versions: 1 2 3 4 5 6 7 8 9 10 11 12 13 14 15 16 17 18 19 20 21 22 23 24 25 26 27 28 29 30 31 32 33 34 35 36 37 38 39 40 41 42 43 44 45 46 47 48 49 50
000
ASUS43 KLOT 050500
RWRIL

ILLINOIS REGIONAL WEATHER ROUNDUP
NATIONAL WEATHER SERVICE CHICAGO/ROMEOVILLE IL
1200 AM CDT TUE MAY 05 2015

NOTE: "FAIR" INDICATES FEW OR NO CLOUDS BELOW 12,000 FEET WITH NO
SIGNIFICANT WEATHER AND/OR OBSTRUCTIONS TO VISIBILITY.

* THESE STATIONS ARE NOT UNDER NWS QUALITY CONTROL. THEY ALSO MAY NOT
  REPORT WEATHER SUCH AS PRECIPITATION OR FOG.

ILZ001-002-007-009-015-016-024-050600-
NORTHWEST ILLINOIS

CITY           SKY/WX    TMP DP  RH WIND       PRES   REMARKS
MOLINE         LGT RAIN  65  62  90 E10       30.10S FOG
$$

ILZ003-004-008-010-011-017-018-050600-
NORTH CENTRAL ILLINOIS

CITY           SKY/WX    TMP DP  RH WIND       PRES   REMARKS
ROCKFORD       NOT AVBL
$$

ILZ005-006-012>014-019>023-050600-
NORTHEAST ILLINOIS

CITY           SKY/WX    TMP DP  RH WIND       PRES   REMARKS
CHICAGO-OHARE  CLOUDY    55  37  50 NE5       30.17S
CHICAGO-MIDWAY MOCLDY    60  33  36 NE10      30.17S
AURORA         LGT RAIN  54  46  74 N7        30.19R
WAUKEGAN       NOT AVBL
DUPAGE AIRPORT CLOUDY    57  37  47 E8        30.16S
WHEELING       MOCLDY    54  36  50 NE5       30.19F
NORTHERLY ISL    N/A     52  39  61 MISG        N/A
$$

LMZ740>746-050600-
SOUTHERN LAKE MICHIGAN

STATION/POSITION SKY/WX   TEMP    WIND        PRES    VSBY  WAVE
                          AIR SEA DIR/SP/G                  HT/PER
                          (F)     (DEG/KT/KT) (MB)    (MI)  (FT/S)
HARRISON CRIB              48     350/  8/  9   N/A
BURNHAM HARBOR             53     350/  4/  7   N/A
CALUMET HARBOR             51     340/  5/  8   N/A
BURNS HARBOR               53      60/  8/ 10 1022.0F
MICHIGAN CITY              53      30/  8/  8   N/A
MICHIGAN CITY 6N           51 50   70/  6/  8   N/A           1
ST. JOSEPH                 52 49   40/  4/  4   N/A           0
$$

ILZ025>027-034>036-040-047-049-050-058-095>099-050600-
WEST-CENTRAL ILLINOIS

CITY           SKY/WX    TMP DP  RH WIND       PRES   REMARKS
QUINCY         CLOUDY    66  62  87 SE7       30.07F
$$

ILZ028>032-037-038-041>044-048-051>054-059>061-050600-
CENTRAL ILLINOIS

CITY           SKY/WX    TMP DP  RH WIND       PRES   REMARKS
PEORIA         NOT AVBL
SPRINGFIELD    CLOUDY    69  62  78 E6        30.11R
TAYLORVILLE    NOT AVBL
$$

ILZ033-039-045-046-055>057-062-063-050600-
EAST-CENTRAL ILLINOIS

CITY           SKY/WX    TMP DP  RH WIND       PRES   REMARKS
CHAMPAIGN      CLOUDY    64  59  83 E9        30.13S
$$

ILZ079-100>102-050600-
SOUTHWEST ILLINOIS

CITY           SKY/WX    TMP DP  RH WIND       PRES   REMARKS
CAHOKIA*       PTCLDY    73  54  51 S7        30.12R
$$

ILZ064>066-069>071-074>076-080>082-084>086-088>090-092>094-050600-
SOUTH-CENTRAL ILLINOIS

CITY           SKY/WX    TMP DP  RH WIND       PRES   REMARKS
CARBONDALE     CLEAR     64  54  69 S6        30.17R
$$

ILZ067-068-072-073-078-083-087-091-050600-
SOUTHEAST ILLINOIS

CITY           SKY/WX    TMP DP  RH WIND       PRES   REMARKS
LAWRENCEVILLE  CLEAR     66  56  70 S8        30.17R
$$

ABBREVIATIONS USED IN REMARKS
   TC - TEMPERATURE IN CELSIUS
  WCI - WIND CHILL INDEX
   HX - HEAT INDEX
  VSB - VISIBILITY
$$



USA.gov is the U.S. government's official web portal to all federal, state and local government web resources and services.